Time,TemperatureF,DewpointF,PressureIn,WindDirection,WindDirectionDegrees,WindSpeedMPH,WindSpeedGustMPH,Humidity,HourlyPrecipIn,Conditions,Clouds,dailyrainin,SoftwareType,DateUTC
2013-01-24 00:00:00,28.6,19.4,30.33,North,350,7.0,9.0,68,0.00,,CLR,0.00,VWS V14.01,2013-01-24 06:00:00,
2013-01-24 00:05:00,28.5,19.6,30.33,North,355,4.0,7.0,69,0.00,,CLR,0.00,VWS V14.01,2013-01-24 06:05:00,
2013-01-24 00:10:00,28.4,19.5,30.33,North,350,4.0,8.0,69,0.00,,CLR,0.00,VWS V14.01,2013-01-24 06:10:00,
2013-01-24 00:15:00,28.4,19.5,30.34,North,355,5.0,11.0,69,0.00,,CLR,0.00,VWS V14.01,2013-01-24 06:15:00,
2013-01-24 00:20:00,28.3,19.8,30.33,North,349,3.0,11.0,70,0.00,,CLR,0.00,VWS V14.01,2013-01-24 06:20:00,
2013-01-24 00:25:00,28.1,19.6,30.34,NNW,337,1.0,9.0,70,0.00,,CLR,0.00,VWS V14.01,2013-01-24 06:25:00,
2013-01-24 00:30:00,28.0,19.5,30.34,North,355,2.0,9.0,70,0.00,,CLR,0.00,VWS V14.01,2013-01-24 06:30:00,
2013-01-24 00:35:00,27.8,19.0,30.35,NNE,15,5.0,11.0,69,0.00,,CLR,0.00,VWS V14.01,2013-01-24 06:35:00,
2013-01-24 00:40:00,27.6,17.7,30.35,North,355,6.0,13.0,66,0.00,,CLR,0.00,VWS V14.01,2013-01-24 06:40:00,
2013-01-24 00:45:00,27.3,17.1,30.35,NNE,18,6.0,12.0,65,0.00,,CLR,0.00,VWS V14.01,2013-01-24 06:45:00,
2013-01-24 00:50:00,27.2,16.6,30.35,North,350,2.0,12.0,64,0.00,,CLR,0.00,VWS V14.01,2013-01-24 06:50:00,
2013-01-24 00:55:00,27.0,16.5,30.36,North,351,4.0,8.0,64,0.00,,CLR,0.00,VWS V14.01,2013-01-24 06:55:00,
2013-01-24 01:00:00,26.9,16.4,30.37,NNW,344,4.0,8.0,64,0.00,,CLR,0.00,VWS V14.01,2013-01-24 07:00:00,
2013-01-24 01:05:00,26.7,16.5,30.37,North,360,3.0,10.0,65,0.00,,CLR,0.00,VWS V14.01,2013-01-24 07:05:00,
2013-01-24 01:10:00,26.6,16.8,30.37,NNW,341,5.0,10.0,66,0.00,,CLR,0.00,VWS V14.01,2013-01-24 07:10:00,
2013-01-24 01:15:00,26.4,16.9,30.37,NE,44,2.0,11.0,67,0.00,,CLR,0.00,VWS V14.01,2013-01-24 07:15:00,
2013-01-24 01:20:00,26.2,16.8,30.38,North,360,5.0,11.0,67,0.00,,CLR,0.00,VWS V14.01,2013-01-24 07:20:00,
2013-01-24 01:25:00,26.0,16.6,30.38,North,360,0.0,9.0,67,0.00,,CLR,0.00,VWS V14.01,2013-01-24 07:25:00,
2013-01-24 01:30:00,25.8,16.4,30.38,North,355,7.0,9.0,67,0.00,,CLR,0.00,VWS V14.01,2013-01-24 07:30:00,
2013-01-24 01:35:00,25.6,16.2,30.39,North,355,5.0,8.0,67,0.00,,CLR,0.00,VWS V14.01,2013-01-24 07:35:00,
2013-01-24 01:40:00,25.4,16.0,30.39,North,355,2.0,8.0,67,0.00,,CLR,0.00,VWS V14.01,2013-01-24 07:40:00,
2013-01-24 01:45:00,25.2,16.1,30.40,North,360,7.0,7.0,68,0.00,,CLR,0.00,VWS V14.01,2013-01-24 07:45:00,
2013-01-24 01:50:00,25.1,16.0,30.40,North,355,4.0,7.0,68,0.00,,CLR,0.00,VWS V14.01,2013-01-24 07:50:00,
2013-01-24 01:55:00,24.9,15.9,30.40,North,355,3.0,6.0,68,0.00,,CLR,0.00,VWS V14.01,2013-01-24 07:55:00,
2013-01-24 02:00:00,24.7,15.7,30.40,NNW,348,4.0,9.0,68,0.00,,CLR,0.00,VWS V14.01,2013-01-24 08:00:00,
2013-01-24 02:05:00,24.7,15.3,30.40,North,360,3.0,16.0,67,0.00,,CLR,0.00,VWS V14.01,2013-01-24 08:05:00,
2013-01-24 02:10:00,24.5,15.1,30.41,North,350,3.0,16.0,67,0.00,,CLR,0.00,VWS V14.01,2013-01-24 08:10:00,
2013-01-24 02:15:00,24.4,15.0,30.41,North,355,7.0,8.0,67,0.00,,CLR,0.00,VWS V14.01,2013-01-24 08:15:00,
2013-01-24 02:20:00,24.3,14.9,30.42,NW,320,7.0,9.0,67,0.00,,CLR,0.00,VWS V14.01,2013-01-24 08:20:00,
2013-01-24 02:25:00,24.2,15.2,30.42,NNE,28,6.0,10.0,68,0.00,,CLR,0.00,VWS V14.01,2013-01-24 08:25:00,
2013-01-24 02:30:00,23.9,14.6,30.42,North,360,6.0,13.0,67,0.00,,CLR,0.00,VWS V14.01,2013-01-24 08:30:00,
2013-01-24 02:35:00,23.6,13.9,30.42,North,355,7.0,10.0,66,0.00,,CLR,0.00,VWS V14.01,2013-01-24 08:35:00,
2013-01-24 02:40:00,23.4,13.0,30.43,NNW,346,5.0,10.0,64,0.00,,CLR,0.00,VWS V14.01,2013-01-24 08:40:00,
2013-01-24 02:45:00,23.2,12.8,30.44,North,360,4.0,11.0,64,0.00,,SCT029,0.00,VWS V14.01,2013-01-24 08:45:00,
2013-01-24 02:50:00,23.0,14.4,30.44,NNE,30,2.0,11.0,69,0.00,,SCT029,0.00,VWS V14.01,2013-01-24 08:50:00,
2013-01-24 02:55:00,22.7,12.4,30.45,NNE,32,5.0,6.0,64,0.00,,BKN029,0.00,VWS V14.01,2013-01-24 08:55:00,
2013-01-24 03:00:00,22.4,12.4,30.45,North,360,7.0,10.0,65,0.00,,BKN029,0.00,VWS V14.01,2013-01-24 09:00:00,
2013-01-24 03:05:00,22.1,11.8,30.45,North,355,6.0,11.0,64,0.00,,BKN029,0.00,VWS V14.01,2013-01-24 09:05:00,
2013-01-24 03:10:00,21.9,12.0,30.45,NE,35,4.0,11.0,65,0.00,,BKN029,0.00,VWS V14.01,2013-01-24 09:10:00,
2013-01-24 03:15:00,21.8,11.9,30.45,NNE,12,4.0,9.0,65,0.00,,BKN029,0.00,VWS V14.01,2013-01-24 09:15:00,
2013-01-24 03:20:00,21.6,12.0,30.45,North,360,4.0,9.0,66,0.00,,BKN029,0.00,VWS V14.01,2013-01-24 09:20:00,
2013-01-24 03:25:00,21.4,11.8,30.45,North,355,9.0,10.0,66,0.00,,BKN029,0.00,VWS V14.01,2013-01-24 09:25:00,
2013-01-24 03:30:00,21.2,11.6,30.45,NNW,333,2.0,11.0,66,0.00,,BKN029,0.00,VWS V14.01,2013-01-24 09:30:00,
2013-01-24 03:35:00,21.0,11.4,30.45,North,5,4.0,7.0,66,0.00,,BKN029,0.00,VWS V14.01,2013-01-24 09:35:00,
2013-01-24 03:40:00,20.8,11.6,30.45,North,5,4.0,8.0,67,0.00,,BKN029,0.00,VWS V14.01,2013-01-24 09:40:00,
2013-01-24 03:45:00,20.7,11.5,30.46,NNW,345,2.0,8.0,67,0.00,,SCT033,0.00,VWS V14.01,2013-01-24 09:45:00,
2013-01-24 03:51:00,20.6,11.4,30.46,North,360,0.0,8.0,67,0.00,,SCT033,0.00,VWS V14.01,2013-01-24 09:51:00,
2013-01-24 03:56:00,20.4,11.5,30.47,North,11,2.0,6.0,68,0.00,,CLR,0.00,VWS V14.01,2013-01-24 09:56:00,
2013-01-24 04:01:00,20.3,11.4,30.47,NNE,15,2.0,8.0,68,0.00,,CLR,0.00,VWS V14.01,2013-01-24 10:01:00,
2013-01-24 04:06:00,20.1,11.2,30.46,North,355,1.0,8.0,68,0.00,,CLR,0.00,VWS V14.01,2013-01-24 10:06:00,
2013-01-24 04:11:00,19.9,11.4,30.46,North,9,3.0,8.0,69,0.00,,CLR,0.00,VWS V14.01,2013-01-24 10:11:00,
2013-01-24 04:16:00,19.8,11.3,30.47,NNE,16,3.0,6.0,69,0.00,,CLR,0.00,VWS V14.01,2013-01-24 10:16:00,
2013-01-24 04:21:00,19.7,11.2,30.48,North,9,2.0,6.0,69,0.00,,CLR,0.00,VWS V14.01,2013-01-24 10:21:00,
2013-01-24 04:26:00,19.6,11.1,30.48,North,355,0.0,6.0,69,0.00,,CLR,0.00,VWS V14.01,2013-01-24 10:26:00,
2013-01-24 04:31:00,19.5,11.0,30.48,North,11,2.0,8.0,69,0.00,,CLR,0.00,VWS V14.01,2013-01-24 10:31:00,
2013-01-24 04:36:00,19.4,10.9,30.48,North,9,1.0,9.0,69,0.00,,CLR,0.00,VWS V14.01,2013-01-24 10:36:00,
2013-01-24 04:41:00,19.3,10.8,30.48,NNW,348,7.0,9.0,69,0.00,,CLR,0.00,VWS V14.01,2013-01-24 10:41:00,
2013-01-24 04:46:00,19.2,10.7,30.49,North,360,2.0,5.0,69,0.00,,CLR,0.00,VWS V14.01,2013-01-24 10:46:00,
2013-01-24 04:51:00,19.1,10.9,30.49,North,360,6.0,7.0,70,0.00,,CLR,0.00,VWS V14.01,2013-01-24 10:51:00,
2013-01-24 04:56:00,19.0,10.8,30.49,North,349,7.0,7.0,70,0.00,,CLR,0.00,VWS V14.01,2013-01-24 10:56:00,
2013-01-24 05:01:00,19.0,10.8,30.50,North,355,4.0,7.0,70,0.00,,CLR,0.00,VWS V14.01,2013-01-24 11:01:00,
2013-01-24 05:06:00,18.9,10.8,30.50,North,360,4.0,7.0,70,0.00,,CLR,0.00,VWS V14.01,2013-01-24 11:06:00,
2013-01-24 05:11:00,18.8,10.6,30.51,North,360,3.0,7.0,70,0.00,,CLR,0.00,VWS V14.01,2013-01-24 11:11:00,
2013-01-24 05:16:00,18.8,11.0,30.51,North,5,1.0,4.0,71,0.00,,CLR,0.00,VWS V14.01,2013-01-24 11:16:00,
2013-01-24 05:21:00,18.6,10.8,30.51,North,360,1.0,6.0,71,0.00,,CLR,0.00,VWS V14.01,2013-01-24 11:21:00,
2013-01-24 05:26:00,18.6,10.8,30.52,North,11,0.0,4.0,71,0.00,,CLR,0.00,VWS V14.01,2013-01-24 11:26:00,
2013-01-24 05:31:00,18.5,11.0,30.51,North,11,1.0,4.0,72,0.00,,CLR,0.00,VWS V14.01,2013-01-24 11:31:00,
2013-01-24 05:36:00,18.5,11.0,30.53,North,9,0.0,3.0,72,0.00,,CLR,0.00,VWS V14.01,2013-01-24 11:36:00,
2013-01-24 05:41:00,18.5,11.3,30.52,North,355,2.0,5.0,73,0.00,,SCT029,0.00,VWS V14.01,2013-01-24 11:41:00,
2013-01-24 05:46:00,18.6,11.4,30.52,North,355,0.0,2.0,73,0.00,,SCT029,0.00,VWS V14.01,2013-01-24 11:46:00,
2013-01-24 05:51:00,18.5,11.0,30.54,NE,49,4.0,12.0,72,0.00,,BKN028,0.00,VWS V14.01,2013-01-24 11:51:00,
2013-01-24 05:56:00,18.4,10.3,30.54,NE,55,1.0,7.0,70,0.00,,BKN028,0.00,VWS V14.01,2013-01-24 11:56:00,
2013-01-24 06:01:00,18.3,9.5,30.54,ENE,59,4.0,8.0,68,0.00,,BKN028,0.00,VWS V14.01,2013-01-24 12:01:00,
2013-01-24 06:06:00,18.2,9.1,30.54,NE,48,0.0,10.0,67,0.00,,BKN028,0.00,VWS V14.01,2013-01-24 12:06:00,
2013-01-24 06:11:00,18.1,9.0,30.54,NE,38,3.0,10.0,67,0.00,,BKN028,0.00,VWS V14.01,2013-01-24 12:11:00,
2013-01-24 06:16:00,18.1,8.7,30.54,ENE,61,0.0,8.0,66,0.00,,BKN028,0.00,VWS V14.01,2013-01-24 12:16:00,
2013-01-24 06:21:00,18.1,8.7,30.54,NE,40,4.0,8.0,66,0.00,,BKN028,0.00,VWS V14.01,2013-01-24 12:21:00,
2013-01-24 06:26:00,18.0,7.9,30.54,ENE,64,4.0,7.0,64,0.00,,BKN028,0.00,VWS V14.01,2013-01-24 12:26:00,
2013-01-24 06:31:00,17.8,7.3,30.55,NNE,24,1.0,7.0,63,0.00,,OVC026,0.00,VWS V14.01,2013-01-24 12:31:00,
2013-01-24 06:36:00,17.6,6.4,30.55,ENE,59,0.0,5.0,61,0.00,,OVC026,0.00,VWS V14.01,2013-01-24 12:36:00,
2013-01-24 06:41:00,17.5,6.7,30.55,NE,55,0.0,5.0,62,0.00,,OVC026,0.00,VWS V14.01,2013-01-24 12:41:00,
2013-01-24 06:46:00,17.3,6.5,30.56,NE,41,0.0,3.0,62,0.00,,OVC026,0.00,VWS V14.01,2013-01-24 12:46:00,
2013-01-24 06:51:00,17.2,6.4,30.55,NE,41,1.0,3.0,62,0.00,,BKN026,0.00,VWS V14.01,2013-01-24 12:51:00,
2013-01-24 06:56:00,17.1,6.0,30.55,North,10,1.0,7.0,61,0.00,,BKN026,0.00,VWS V14.01,2013-01-24 12:56:00,
2013-01-24 07:01:00,17.0,5.5,30.55,ENE,66,0.0,7.0,60,0.00,,BKN026,0.00,VWS V14.01,2013-01-24 13:01:00,
2013-01-24 07:06:00,17.0,5.5,30.55,NNE,13,0.0,3.0,60,0.00,,BKN026,0.00,VWS V14.01,2013-01-24 13:06:00,
2013-01-24 07:11:00,16.9,5.4,30.55,NNE,24,0.0,3.0,60,0.00,,BKN026,0.00,VWS V14.01,2013-01-24 13:11:00,
2013-01-24 07:16:00,16.8,5.3,30.55,NNE,12,0.0,2.0,60,0.00,,BKN026,0.00,VWS V14.01,2013-01-24 13:16:00,
2013-01-24 07:21:00,16.7,5.2,30.56,North,355,0.0,2.0,60,0.00,,BKN026,0.00,VWS V14.01,2013-01-24 13:21:00,
2013-01-24 07:26:00,16.7,5.2,30.56,NNE,22,0.0,1.0,60,0.00,,BKN026,0.00,VWS V14.01,2013-01-24 13:26:00,
2013-01-24 07:31:00,16.7,5.2,30.57,North,11,0.0,0.0,60,0.00,,BKN026,0.00,VWS V14.01,2013-01-24 13:31:00,
2013-01-24 07:36:00,16.7,5.6,30.56,NNE,23,0.0,7.0,61,0.00,,CLR,0.00,VWS V14.01,2013-01-24 13:36:00,
2013-01-24 07:41:00,16.7,4.9,30.56,NE,44,5.0,5.0,59,0.00,,CLR,0.00,VWS V14.01,2013-01-24 13:41:00,
2013-01-24 07:46:00,16.7,4.9,30.56,NE,50,0.0,7.0,59,0.00,,CLR,0.00,VWS V14.01,2013-01-24 13:46:00,
2013-01-24 07:51:00,16.7,5.2,30.56,ENE,76,0.0,0.0,60,0.00,,CLR,0.00,VWS V14.01,2013-01-24 13:51:00,
2013-01-24 07:56:00,16.7,5.2,30.56,NE,46,0.0,4.0,60,0.00,,CLR,0.00,VWS V14.01,2013-01-24 13:56:00,
2013-01-24 08:01:00,16.8,5.3,30.57,NE,46,0.0,0.0,60,0.00,,CLR,0.00,VWS V14.01,2013-01-24 14:01:00,
2013-01-24 08:06:00,16.9,5.4,30.57,NE,56,3.0,6.0,60,0.00,,CLR,0.00,VWS V14.01,2013-01-24 14:06:00,
2013-01-24 08:11:00,16.9,5.4,30.57,North,360,0.0,0.0,60,0.00,,CLR,0.00,VWS V14.01,2013-01-24 14:11:00,
2013-01-24 08:16:00,17.0,5.9,30.58,East,82,2.0,7.0,61,0.00,,CLR,0.00,VWS V14.01,2013-01-24 14:16:00,
2013-01-24 08:21:00,16.9,5.8,30.59,East,94,8.0,8.0,61,0.00,,CLR,0.00,VWS V14.01,2013-01-24 14:21:00,
2013-01-24 08:26:00,16.9,5.8,30.59,NE,51,3.0,11.0,61,0.00,,CLR,0.00,VWS V14.01,2013-01-24 14:26:00,
2013-01-24 08:31:00,16.7,5.2,30.59,NE,38,6.0,6.0,60,0.00,,CLR,0.00,VWS V14.01,2013-01-24 14:31:00,
2013-01-24 08:36:00,16.8,5.3,30.59,NE,53,6.0,8.0,60,0.00,,CLR,0.00,VWS V14.01,2013-01-24 14:36:00,
2013-01-24 08:41:00,16.7,5.2,30.59,ENE,75,2.0,4.0,60,0.00,,CLR,0.00,VWS V14.01,2013-01-24 14:41:00,
2013-01-24 08:46:00,16.8,5.7,30.59,NNE,16,2.0,4.0,61,0.00,,CLR,0.00,VWS V14.01,2013-01-24 14:46:00,
2013-01-24 08:51:00,17.2,6.1,30.59,NE,49,1.0,1.0,61,0.00,,CLR,0.00,VWS V14.01,2013-01-24 14:51:00,
2013-01-24 08:56:00,17.5,6.0,30.60,NNW,336,6.0,10.0,60,0.00,,CLR,0.00,VWS V14.01,2013-01-24 14:56:00,
2013-01-24 09:01:00,17.5,6.4,30.60,NNE,27,4.0,10.0,61,0.00,,CLR,0.00,VWS V14.01,2013-01-24 15:01:00,
2013-01-24 09:06:00,17.7,6.6,30.60,ENE,67,2.0,10.0,61,0.00,,CLR,0.00,VWS V14.01,2013-01-24 15:06:00,
2013-01-24 09:11:00,18.2,6.7,30.61,NNW,343,3.0,3.0,60,0.00,,CLR,0.00,VWS V14.01,2013-01-24 15:11:00,
2013-01-24 09:16:00,17.9,6.0,30.61,NE,38,3.0,10.0,59,0.00,,CLR,0.00,VWS V14.01,2013-01-24 15:16:00,
2013-01-24 09:21:00,17.7,6.2,30.60,ENE,57,8.0,8.0,60,0.00,,CLR,0.00,VWS V14.01,2013-01-24 15:21:00,
2013-01-24 09:26:00,17.5,6.0,30.60,NE,54,6.0,13.0,60,0.00,,CLR,0.00,VWS V14.01,2013-01-24 15:26:00,
2013-01-24 09:31:00,17.4,6.3,30.61,ENE,71,2.0,2.0,61,0.00,,CLR,0.00,VWS V14.01,2013-01-24 15:31:00,
2013-01-24 09:36:00,17.7,6.6,30.62,NE,47,2.0,8.0,61,0.00,,CLR,0.00,VWS V14.01,2013-01-24 15:36:00,
2013-01-24 09:41:00,18.0,7.2,30.62,NE,54,3.0,10.0,62,0.00,,,0.00,VWS V14.01,2013-01-24 15:41:00,
2013-01-24 09:46:00,18.1,7.3,30.63,North,360,2.0,13.0,62,0.00,,,0.00,VWS V14.01,2013-01-24 15:46:00,
2013-01-24 09:51:00,18.2,7.4,30.63,ENE,63,1.0,2.0,62,0.00,,,0.00,VWS V14.01,2013-01-24 15:51:00,
2013-01-24 09:56:00,18.6,7.4,30.64,East,84,3.0,8.0,61,0.00,,,0.00,VWS V14.01,2013-01-24 15:56:00,
2013-01-24 10:01:00,18.8,7.9,30.63,North,5,3.0,3.0,62,0.00,,,0.00,VWS V14.01,2013-01-24 16:01:00,
2013-01-24 10:06:00,18.9,7.7,30.63,NE,43,4.0,10.0,61,0.00,,,0.00,VWS V14.01,2013-01-24 16:06:00,
2013-01-24 10:11:00,18.8,7.6,30.63,NE,38,5.0,6.0,61,0.00,,,0.00,VWS V14.01,2013-01-24 16:11:00,
2013-01-24 10:16:00,19.2,8.0,30.62,NE,44,5.0,6.0,61,0.00,,,0.00,VWS V14.01,2013-01-24 16:16:00,
2013-01-24 10:21:00,19.7,8.4,30.62,ENE,73,0.0,3.0,61,0.00,,,0.00,VWS V14.01,2013-01-24 16:21:00,
2013-01-24 10:26:00,19.5,7.9,30.62,NE,55,4.0,10.0,60,0.00,,,0.00,VWS V14.01,2013-01-24 16:26:00,
2013-01-24 10:31:00,19.2,8.0,30.61,ENE,67,5.0,11.0,61,0.00,,,0.00,VWS V14.01,2013-01-24 16:31:00,
2013-01-24 10:36:00,18.9,7.7,30.61,ENE,71,4.0,13.0,61,0.00,,,0.00,VWS V14.01,2013-01-24 16:36:00,
2013-01-24 10:41:00,19.3,8.1,30.61,ENE,65,5.0,5.0,61,0.00,,,0.00,VWS V14.01,2013-01-24 16:41:00,
2013-01-24 10:46:00,19.5,8.3,30.61,NNE,21,4.0,8.0,61,0.00,,,0.00,VWS V14.01,2013-01-24 16:46:00,
2013-01-24 10:51:00,20.0,8.7,30.61,NNE,12,5.0,5.0,61,0.00,,,0.00,VWS V14.01,2013-01-24 16:51:00,
2013-01-24 10:56:00,20.7,9.4,30.62,ENE,69,0.0,6.0,61,0.00,,,0.00,VWS V14.01,2013-01-24 16:56:00,
2013-01-24 11:01:00,20.9,9.2,30.62,ENE,69,5.0,5.0,60,0.00,,,0.00,VWS V14.01,2013-01-24 17:01:00,
2013-01-24 11:06:00,21.1,9.0,30.61,NE,53,10.0,10.0,59,0.00,,,0.00,VWS V14.01,2013-01-24 17:06:00,
2013-01-24 11:11:00,20.7,8.6,30.61,East,82,0.0,2.0,59,0.00,,,0.00,VWS V14.01,2013-01-24 17:11:00,
2013-01-24 11:17:00,21.5,9.8,30.61,East,80,5.0,6.0,60,0.00,,,0.00,VWS V14.01,2013-01-24 17:17:00,
2013-01-24 11:22:00,21.6,9.5,30.60,ESE,105,2.0,5.0,59,0.00,,,0.00,VWS V14.01,2013-01-24 17:22:00,
2013-01-24 11:27:00,21.4,8.9,30.59,East,86,5.0,12.0,58,0.00,,,0.00,VWS V14.01,2013-01-24 17:27:00,
2013-01-24 11:32:00,21.5,9.4,30.60,East,81,6.0,12.0,59,0.00,,CLR,0.00,VWS V14.01,2013-01-24 17:32:00,
2013-01-24 11:37:00,21.6,9.1,30.60,East,88,4.0,12.0,58,0.00,,CLR,0.00,VWS V14.01,2013-01-24 17:37:00,
2013-01-24 11:42:00,21.6,9.1,30.59,SE,141,7.0,7.0,58,0.00,,CLR,0.00,VWS V14.01,2013-01-24 17:42:00,
2013-01-24 11:47:00,21.8,9.3,30.59,ESE,116,2.0,11.0,58,0.00,,CLR,0.00,VWS V14.01,2013-01-24 17:47:00,
2013-01-24 11:52:00,21.7,9.2,30.59,East,82,5.0,7.0,58,0.00,,CLR,0.00,VWS V14.01,2013-01-24 17:52:00,
2013-01-24 11:57:00,22.1,10.0,30.59,SE,128,6.0,11.0,59,0.00,,CLR,0.00,VWS V14.01,2013-01-24 17:57:00,
2013-01-24 12:02:00,22.5,10.0,30.58,ENE,74,6.0,6.0,58,0.00,,CLR,0.00,VWS V14.01,2013-01-24 18:02:00,
2013-01-24 12:07:00,22.8,9.9,30.57,East,90,7.0,9.0,57,0.00,,CLR,0.00,VWS V14.01,2013-01-24 18:07:00,
2013-01-24 12:12:00,22.9,9.2,30.57,SE,126,5.0,7.0,55,0.00,,CLR,0.00,VWS V14.01,2013-01-24 18:12:00,
2013-01-24 12:17:00,23.7,10.7,30.57,ESE,102,5.0,12.0,57,0.00,,CLR,0.00,VWS V14.01,2013-01-24 18:17:00,
2013-01-24 12:22:00,23.7,9.9,30.57,ENE,63,1.0,2.0,55,0.00,,CLR,0.00,VWS V14.01,2013-01-24 18:22:00,
2013-01-24 12:27:00,23.7,9.9,30.56,NE,54,3.0,12.0,55,0.00,,CLR,0.00,VWS V14.01,2013-01-24 18:27:00,
2013-01-24 12:32:00,24.0,10.6,30.56,East,82,4.0,8.0,56,0.00,,CLR,0.00,VWS V14.01,2013-01-24 18:32:00,
2013-01-24 12:37:00,23.7,9.1,30.57,East,86,2.0,13.0,53,0.00,,CLR,0.00,VWS V14.01,2013-01-24 18:37:00,
2013-01-24 12:42:00,24.1,9.9,30.57,ESE,103,1.0,4.0,54,0.00,,CLR,0.00,VWS V14.01,2013-01-24 18:42:00,
2013-01-24 12:47:00,24.6,10.3,30.56,East,96,2.0,5.0,54,0.00,,CLR,0.00,VWS V14.01,2013-01-24 18:47:00,
2013-01-24 12:52:00,24.4,9.3,30.55,ENE,65,7.0,9.0,52,0.00,,CLR,0.00,VWS V14.01,2013-01-24 18:52:00,
2013-01-24 12:57:00,24.1,9.0,30.55,ESE,112,5.0,17.0,52,0.00,,CLR,0.00,VWS V14.01,2013-01-24 18:57:00,
2013-01-24 13:02:00,24.0,9.4,30.55,SE,130,4.0,4.0,53,0.00,,CLR,0.00,VWS V14.01,2013-01-24 19:02:00,
2013-01-24 13:07:00,24.3,9.6,30.55,East,96,2.0,11.0,53,0.00,,CLR,0.00,VWS V14.01,2013-01-24 19:07:00,
2013-01-24 13:12:00,24.4,9.3,30.55,ENE,71,3.0,4.0,52,0.00,,CLR,0.00,VWS V14.01,2013-01-24 19:12:00,
2013-01-24 13:17:00,24.6,9.9,30.54,NE,52,7.0,7.0,53,0.00,,CLR,0.00,VWS V14.01,2013-01-24 19:17:00,
2013-01-24 13:22:00,24.6,9.5,30.54,ESE,105,2.0,7.0,52,0.00,,CLR,0.00,VWS V14.01,2013-01-24 19:22:00,
2013-01-24 13:27:00,25.4,10.2,30.54,ENE,74,7.0,12.0,52,0.00,,CLR,0.00,VWS V14.01,2013-01-24 19:27:00,
2013-01-24 13:32:00,25.7,10.1,30.53,ESE,105,9.0,9.0,51,0.00,,CLR,0.00,VWS V14.01,2013-01-24 19:32:00,
2013-01-24 13:37:00,25.4,9.4,30.52,East,85,5.0,14.0,50,0.00,,CLR,0.00,VWS V14.01,2013-01-24 19:37:00,
2013-01-24 13:42:00,25.4,9.4,30.51,ESE,103,4.0,6.0,50,0.00,,CLR,0.00,VWS V14.01,2013-01-24 19:42:00,
2013-01-24 13:47:00,25.5,9.9,30.52,East,95,7.0,10.0,51,0.00,,CLR,0.00,VWS V14.01,2013-01-24 19:47:00,
2013-01-24 13:52:00,25.5,10.8,30.51,ENE,57,0.0,1.0,53,0.00,,CLR,0.00,VWS V14.01,2013-01-24 19:52:00,
2013-01-24 13:57:00,25.6,10.0,30.51,ENE,67,1.0,9.0,51,0.00,,CLR,0.00,VWS V14.01,2013-01-24 19:57:00,
2013-01-24 14:02:00,25.2,9.6,30.51,ENE,65,5.0,6.0,51,0.00,,CLR,0.00,VWS V14.01,2013-01-24 20:02:00,
2013-01-24 14:07:00,25.2,9.6,30.52,ESE,107,6.0,12.0,51,0.00,,CLR,0.00,VWS V14.01,2013-01-24 20:07:00,
2013-01-24 14:12:00,25.2,9.6,30.50,East,90,7.0,9.0,51,0.00,,CLR,0.00,VWS V14.01,2013-01-24 20:12:00,
2013-01-24 14:17:00,25.2,9.6,30.51,NE,47,7.0,11.0,51,0.00,,CLR,0.00,VWS V14.01,2013-01-24 20:17:00,
2013-01-24 14:22:00,25.2,9.6,30.51,East,100,4.0,12.0,51,0.00,,CLR,0.00,VWS V14.01,2013-01-24 20:22:00,
2013-01-24 14:27:00,25.2,9.6,30.49,SE,139,4.0,12.0,51,0.00,,CLR,0.00,VWS V14.01,2013-01-24 20:27:00,
2013-01-24 14:32:00,25.6,10.0,30.49,East,84,4.0,5.0,51,0.00,,CLR,0.00,VWS V14.01,2013-01-24 20:32:00,
2013-01-24 14:37:00,25.7,10.1,30.50,SE,138,5.0,11.0,51,0.00,,CLR,0.00,VWS V14.01,2013-01-24 20:37:00,
2013-01-24 14:42:00,25.8,9.7,30.50,SE,129,9.0,9.0,50,0.00,,CLR,0.00,VWS V14.01,2013-01-24 20:42:00,
2013-01-24 14:47:00,25.6,9.6,30.49,East,79,0.0,12.0,50,0.00,,CLR,0.00,VWS V14.01,2013-01-24 20:47:00,
2013-01-24 14:52:00,25.5,9.5,30.49,SE,140,2.0,6.0,50,0.00,,CLR,0.00,VWS V14.01,2013-01-24 20:52:00,
2013-01-24 14:57:00,25.7,9.6,30.49,ENE,68,5.0,14.0,50,0.00,,CLR,0.00,VWS V14.01,2013-01-24 20:57:00,
2013-01-24 15:02:00,25.6,9.6,30.49,SE,136,2.0,10.0,50,0.00,,CLR,0.00,VWS V14.01,2013-01-24 21:02:00,
2013-01-24 15:07:00,25.4,8.9,30.48,NE,44,10.0,12.0,49,0.00,,CLR,0.00,VWS V14.01,2013-01-24 21:07:00,
2013-01-24 15:12:00,25.2,9.2,30.49,ESE,106,4.0,8.0,50,0.00,,CLR,0.00,VWS V14.01,2013-01-24 21:12:00,
2013-01-24 15:17:00,25.2,9.6,30.49,ENE,64,1.0,8.0,51,0.00,,CLR,0.00,VWS V14.01,2013-01-24 21:17:00,
2013-01-24 15:22:00,25.2,9.6,30.48,ENE,78,4.0,7.0,51,0.00,,CLR,0.00,VWS V14.01,2013-01-24 21:22:00,
2013-01-24 15:27:00,25.1,9.5,30.48,East,94,7.0,12.0,51,0.00,,CLR,0.00,VWS V14.01,2013-01-24 21:27:00,
2013-01-24 15:32:00,25.2,9.6,30.49,ENE,63,6.0,6.0,51,0.00,,CLR,0.00,VWS V14.01,2013-01-24 21:32:00,
2013-01-24 15:37:00,25.2,9.6,30.48,ESE,111,0.0,8.0,51,0.00,,CLR,0.00,VWS V14.01,2013-01-24 21:37:00,
2013-01-24 15:42:00,25.2,10.1,30.49,East,96,0.0,2.0,52,0.00,,CLR,0.00,VWS V14.01,2013-01-24 21:42:00,
2013-01-24 15:47:00,25.4,9.8,30.48,East,90,1.0,7.0,51,0.00,,CLR,0.00,VWS V14.01,2013-01-24 21:47:00,
2013-01-24 15:52:00,25.4,9.4,30.47,SE,136,5.0,7.0,50,0.00,,CLR,0.00,VWS V14.01,2013-01-24 21:52:00,
2013-01-24 15:57:00,25.3,9.7,30.48,SE,139,4.0,9.0,51,0.00,,CLR,0.00,VWS V14.01,2013-01-24 21:57:00,
2013-01-24 16:02:00,25.3,9.7,30.48,ENE,72,3.0,3.0,51,0.00,,CLR,0.00,VWS V14.01,2013-01-24 22:02:00,
2013-01-24 16:07:00,25.3,9.7,30.47,ESE,117,2.0,11.0,51,0.00,,CLR,0.00,VWS V14.01,2013-01-24 22:07:00,
2013-01-24 16:12:00,25.4,9.8,30.47,SSE,153,4.0,6.0,51,0.00,,CLR,0.00,VWS V14.01,2013-01-24 22:12:00,
2013-01-24 16:17:00,25.4,9.8,30.48,ESE,111,4.0,7.0,51,0.00,,CLR,0.00,VWS V14.01,2013-01-24 22:17:00,
2013-01-24 16:22:00,25.5,10.3,30.47,ESE,113,0.0,5.0,52,0.00,,CLR,0.00,VWS V14.01,2013-01-24 22:22:00,
2013-01-24 16:27:00,25.6,10.0,30.47,East,101,4.0,8.0,51,0.00,,CLR,0.00,VWS V14.01,2013-01-24 22:27:00,
2013-01-24 16:32:00,25.5,9.5,30.48,SSE,161,8.0,9.0,50,0.00,,CLR,0.00,VWS V14.01,2013-01-24 22:32:00,
2013-01-24 16:37:00,25.4,9.8,30.48,ESE,121,4.0,9.0,51,0.00,,CLR,0.00,VWS V14.01,2013-01-24 22:37:00,
2013-01-24 16:42:00,25.4,9.8,30.47,ESE,109,6.0,10.0,51,0.00,,CLR,0.00,VWS V14.01,2013-01-24 22:42:00,
2013-01-24 16:47:00,25.3,10.1,30.46,ESE,123,5.0,10.0,52,0.00,,CLR,0.00,VWS V14.01,2013-01-24 22:47:00,
2013-01-24 16:52:00,25.2,10.1,30.46,ESE,103,0.0,5.0,52,0.00,,CLR,0.00,VWS V14.01,2013-01-24 22:52:00,
2013-01-24 16:57:00,25.1,10.4,30.46,ESE,117,4.0,5.0,53,0.00,,CLR,0.00,VWS V14.01,2013-01-24 22:57:00,
2013-01-24 17:02:00,25.1,10.4,30.47,ESE,102,0.0,3.0,53,0.00,,CLR,0.00,VWS V14.01,2013-01-24 23:02:00,
2013-01-24 17:07:00,25.1,10.4,30.46,ESE,109,5.0,5.0,53,0.00,,CLR,0.00,VWS V14.01,2013-01-24 23:07:00,
2013-01-24 17:12:00,25.1,10.4,30.45,ESE,104,1.0,6.0,53,0.00,,CLR,0.00,VWS V14.01,2013-01-24 23:12:00,
2013-01-24 17:17:00,25.0,10.7,30.45,East,93,4.0,8.0,54,0.00,,CLR,0.00,VWS V14.01,2013-01-24 23:17:00,
2013-01-24 17:22:00,25.0,10.7,30.45,SE,127,0.0,2.0,54,0.00,,CLR,0.00,VWS V14.01,2013-01-24 23:22:00,
2013-01-24 17:27:00,25.0,10.7,30.45,SE,136,5.0,7.0,54,0.00,,CLR,0.00,VWS V14.01,2013-01-24 23:27:00,
2013-01-24 17:32:00,25.0,10.7,30.45,ESE,115,7.0,8.0,54,0.00,,CLR,0.00,VWS V14.01,2013-01-24 23:32:00,
2013-01-24 17:37:00,25.1,10.4,30.45,ESE,111,6.0,8.0,53,0.00,,CLR,0.00,VWS V14.01,2013-01-24 23:37:00,
2013-01-24 17:42:00,25.1,10.4,30.45,SSE,155,5.0,5.0,53,0.00,,CLR,0.00,VWS V14.01,2013-01-24 23:42:00,
2013-01-24 17:47:00,25.1,10.4,30.45,ESE,121,2.0,9.0,53,0.00,,CLR,0.00,VWS V14.01,2013-01-24 23:47:00,
2013-01-24 17:52:00,25.1,10.4,30.45,ESE,120,4.0,8.0,53,0.00,,CLR,0.00,VWS V14.01,2013-01-24 23:52:00,
2013-01-24 17:57:00,25.1,10.4,30.45,SE,128,0.0,8.0,53,0.00,,CLR,0.00,VWS V14.01,2013-01-24 23:57:00,
2013-01-24 18:02:00,25.1,10.4,30.45,ESE,123,0.0,5.0,53,0.00,,CLR,0.00,VWS V14.01,2013-01-25 00:02:00,
2013-01-24 18:07:00,25.2,10.9,30.45,SE,135,5.0,7.0,54,0.00,,CLR,0.00,VWS V14.01,2013-01-25 00:07:00,
2013-01-24 18:12:00,25.2,10.9,30.45,SE,125,5.0,7.0,54,0.00,,CLR,0.00,VWS V14.01,2013-01-25 00:12:00,
2013-01-24 18:17:00,25.1,10.8,30.45,SE,128,2.0,7.0,54,0.00,,CLR,0.00,VWS V14.01,2013-01-25 00:17:00,
2013-01-24 18:22:00,25.1,10.8,30.44,SE,130,0.0,7.0,54,0.00,,CLR,0.00,VWS V14.01,2013-01-25 00:22:00,
2013-01-24 18:27:00,25.1,10.8,30.45,East,88,4.0,7.0,54,0.00,,CLR,0.00,VWS V14.01,2013-01-25 00:27:00,
2013-01-24 18:32:00,25.1,11.2,30.44,East,86,1.0,2.0,55,0.00,,CLR,0.00,VWS V14.01,2013-01-25 00:32:00,
2013-01-24 18:37:00,25.0,11.1,30.43,ESE,119,2.0,8.0,55,0.00,,CLR,0.00,VWS V14.01,2013-01-25 00:37:00,
2013-01-24 18:42:00,24.9,11.0,30.43,ESE,114,4.0,5.0,55,0.00,,CLR,0.00,VWS V14.01,2013-01-25 00:42:00,
2013-01-24 18:47:00,24.9,11.0,30.43,ESE,109,2.0,6.0,55,0.00,,CLR,0.00,VWS V14.01,2013-01-25 00:47:00,
2013-01-24 18:52:00,25.0,11.1,30.43,SSE,148,6.0,7.0,55,0.00,,CLR,0.00,VWS V14.01,2013-01-25 00:52:00,
2013-01-24 18:57:00,24.9,11.4,30.42,East,82,2.0,7.0,56,0.00,,CLR,0.00,VWS V14.01,2013-01-25 00:57:00,
2013-01-24 19:02:00,24.8,11.3,30.43,East,101,1.0,1.0,56,0.00,,CLR,0.00,VWS V14.01,2013-01-25 01:02:00,
2013-01-24 19:07:00,24.8,11.3,30.43,ESE,119,4.0,5.0,56,0.00,,CLR,0.00,VWS V14.01,2013-01-25 01:07:00,
2013-01-24 19:12:00,24.7,11.2,30.42,ESE,111,4.0,4.0,56,0.00,,CLR,0.00,VWS V14.01,2013-01-25 01:12:00,
2013-01-24 19:17:00,24.7,11.2,30.41,SE,140,0.0,7.0,56,0.00,,CLR,0.00,VWS V14.01,2013-01-25 01:17:00,
2013-01-24 19:22:00,24.5,11.1,30.41,SE,127,5.0,7.0,56,0.00,,CLR,0.00,VWS V14.01,2013-01-25 01:22:00,
2013-01-24 19:27:00,24.4,11.0,30.42,East,97,0.0,7.0,56,0.00,,CLR,0.00,VWS V14.01,2013-01-25 01:27:00,
2013-01-24 19:33:00,24.4,11.0,30.41,East,87,0.0,4.0,56,0.00,,CLR,0.00,VWS V14.01,2013-01-25 01:33:00,
2013-01-24 19:38:00,24.3,11.3,30.41,ESE,104,0.0,5.0,57,0.00,,CLR,0.00,VWS V14.01,2013-01-25 01:38:00,
2013-01-24 19:43:00,24.3,11.3,30.41,SE,134,5.0,8.0,57,0.00,,CLR,0.00,VWS V14.01,2013-01-25 01:43:00,
2013-01-24 19:48:00,24.3,11.3,30.41,ESE,110,0.0,8.0,57,0.00,,CLR,0.00,VWS V14.01,2013-01-25 01:48:00,
2013-01-24 19:53:00,24.3,11.3,30.41,ESE,104,0.0,4.0,57,0.00,,CLR,0.00,VWS V14.01,2013-01-25 01:53:00,
2013-01-24 19:58:00,24.3,11.3,30.41,ESE,110,2.0,5.0,57,0.00,,CLR,0.00,VWS V14.01,2013-01-25 01:58:00,
2013-01-24 20:03:00,24.4,11.0,30.41,ESE,111,0.0,4.0,56,0.00,,CLR,0.00,VWS V14.01,2013-01-25 02:03:00,
2013-01-24 20:08:00,24.4,11.0,30.40,ESE,108,0.0,5.0,56,0.00,,CLR,0.00,VWS V14.01,2013-01-25 02:08:00,
2013-01-24 20:13:00,24.5,11.1,30.40,ESE,113,0.0,2.0,56,0.00,,CLR,0.00,VWS V14.01,2013-01-25 02:13:00,
2013-01-24 20:18:00,24.6,11.2,30.40,ESE,112,0.0,2.0,56,0.00,,CLR,0.00,VWS V14.01,2013-01-25 02:18:00,
2013-01-24 20:23:00,24.6,11.2,30.40,ESE,115,0.0,5.0,56,0.00,,CLR,0.00,VWS V14.01,2013-01-25 02:23:00,
2013-01-24 20:28:00,24.7,11.2,30.40,East,90,0.0,5.0,56,0.00,,CLR,0.00,VWS V14.01,2013-01-25 02:28:00,
2013-01-24 20:33:00,24.8,11.3,30.40,East,100,0.0,4.0,56,0.00,,CLR,0.00,VWS V14.01,2013-01-25 02:33:00,
2013-01-24 20:38:00,24.8,11.3,30.39,East,90,1.0,4.0,56,0.00,,CLR,0.00,VWS V14.01,2013-01-25 02:38:00,
2013-01-24 20:43:00,24.9,11.4,30.39,ESE,111,2.0,4.0,56,0.00,,CLR,0.00,VWS V14.01,2013-01-25 02:43:00,
2013-01-24 20:48:00,24.9,11.4,30.39,ESE,105,1.0,5.0,56,0.00,,CLR,0.00,VWS V14.01,2013-01-25 02:48:00,
2013-01-24 20:53:00,24.9,11.4,30.40,ESE,111,2.0,4.0,56,0.00,,BKN070,0.00,VWS V14.01,2013-01-25 02:53:00,
2013-01-24 20:58:00,25.0,11.5,30.39,ESE,104,1.0,5.0,56,0.00,,BKN070,0.00,VWS V14.01,2013-01-25 02:58:00,
2013-01-24 21:03:00,25.1,11.6,30.39,ESE,111,7.0,7.0,56,0.00,,BKN070,0.00,VWS V14.01,2013-01-25 03:03:00,
2013-01-24 21:08:00,25.2,11.7,30.38,ESE,103,4.0,7.0,56,0.00,,BKN070,0.00,VWS V14.01,2013-01-25 03:08:00,
2013-01-24 21:13:00,25.3,12.2,30.37,ESE,104,0.0,2.0,57,0.00,,BKN070,0.00,VWS V14.01,2013-01-25 03:13:00,
2013-01-24 21:18:00,25.4,11.9,30.38,SE,142,5.0,7.0,56,0.00,,BKN070,0.00,VWS V14.01,2013-01-25 03:18:00,
2013-01-24 21:23:00,25.4,11.5,30.38,East,91,0.0,5.0,55,0.00,,BKN070,0.00,VWS V14.01,2013-01-25 03:23:00,
2013-01-24 21:28:00,25.5,11.6,30.37,SE,128,0.0,5.0,55,0.00,,BKN070,0.00,VWS V14.01,2013-01-25 03:28:00,
2013-01-24 21:33:00,25.6,12.1,30.36,ESE,115,4.0,5.0,56,0.00,,OVC070,0.00,VWS V14.01,2013-01-25 03:33:00,
2013-01-24 21:38:00,25.6,11.7,30.36,SE,125,0.0,7.0,55,0.00,,OVC070,0.00,VWS V14.01,2013-01-25 03:38:00,
2013-01-24 21:43:00,25.7,11.8,30.35,ESE,107,4.0,5.0,55,0.00,,OVC070,0.00,VWS V14.01,2013-01-25 03:43:00,
2013-01-24 21:48:00,25.8,11.5,30.36,SE,134,0.0,5.0,54,0.00,,OVC070,0.00,VWS V14.01,2013-01-25 03:48:00,
2013-01-24 21:53:00,25.9,12.0,30.34,East,86,0.0,6.0,55,0.00,,OVC070,0.00,VWS V14.01,2013-01-25 03:53:00,
2013-01-24 21:58:00,26.0,11.6,30.35,ESE,118,0.0,7.0,54,0.00,,OVC070,0.00,VWS V14.01,2013-01-25 03:58:00,
2013-01-24 22:03:00,26.0,11.2,30.35,SE,136,4.0,5.0,53,0.00,,OVC070,0.00,VWS V14.01,2013-01-25 04:03:00,
2013-01-24 22:08:00,26.1,11.7,30.35,East,95,8.0,8.0,54,0.00,,OVC070,0.00,VWS V14.01,2013-01-25 04:08:00,
2013-01-24 22:13:00,26.1,11.3,30.35,East,98,0.0,8.0,53,0.00,,OVC070,0.00,VWS V14.01,2013-01-25 04:13:00,
2013-01-24 22:18:00,26.2,11.4,30.35,ESE,123,5.0,11.0,53,0.00,,OVC070,0.00,VWS V14.01,2013-01-25 04:18:00,
2013-01-24 22:23:00,26.2,11.4,30.33,SE,129,0.0,9.0,53,0.00,,OVC070,0.00,VWS V14.01,2013-01-25 04:23:00,
2013-01-24 22:28:00,26.3,11.5,30.33,ESE,121,6.0,9.0,53,0.00,,OVC070,0.00,VWS V14.01,2013-01-25 04:28:00,
2013-01-24 22:33:00,26.4,11.2,30.33,SE,128,5.0,7.0,52,0.00,,OVC070,0.00,VWS V14.01,2013-01-25 04:33:00,
2013-01-24 22:38:00,26.4,11.2,30.33,South,185,5.0,14.0,52,0.00,,OVC070,0.00,VWS V14.01,2013-01-25 04:38:00,
2013-01-24 22:43:00,26.5,11.3,30.33,SE,133,1.0,5.0,52,0.00,,OVC080,0.00,VWS V14.01,2013-01-25 04:43:00,
2013-01-24 22:48:00,26.5,11.3,30.33,SSE,150,1.0,8.0,52,0.00,,OVC080,0.00,VWS V14.01,2013-01-25 04:48:00,
2013-01-24 22:53:00,26.5,11.3,30.33,SE,142,1.0,9.0,52,0.00,,OVC080,0.00,VWS V14.01,2013-01-25 04:53:00,
2013-01-24 22:58:00,26.5,11.7,30.33,SE,139,0.0,9.0,53,0.00,,OVC080,0.00,VWS V14.01,2013-01-25 04:58:00,
2013-01-24 23:03:00,26.5,11.3,30.33,SE,146,7.0,7.0,52,0.00,,OVC080,0.00,VWS V14.01,2013-01-25 05:03:00,
2013-01-24 23:08:00,26.6,11.8,30.32,SSE,163,5.0,7.0,53,0.00,,OVC080,0.00,VWS V14.01,2013-01-25 05:08:00,
2013-01-24 23:13:00,26.6,11.8,30.32,East,93,4.0,9.0,53,0.00,,OVC080,0.00,VWS V14.01,2013-01-25 05:13:00,
2013-01-24 23:18:00,26.6,11.8,30.32,SE,138,7.0,9.0,53,0.00,,OVC080,0.00,VWS V14.01,2013-01-25 05:18:00,
2013-01-24 23:23:00,26.6,11.4,30.31,South,176,1.0,15.0,52,0.00,,OVC080,0.00,VWS V14.01,2013-01-25 05:23:00,
2013-01-24 23:28:00,26.7,11.9,30.31,East,84,2.0,15.0,53,0.00,,OVC080,0.00,VWS V14.01,2013-01-25 05:28:00,
2013-01-24 23:33:00,26.7,11.4,30.31,SE,131,5.0,12.0,52,0.00,,OVC050,0.00,VWS V14.01,2013-01-25 05:33:00,
2013-01-24 23:38:00,26.7,11.4,30.30,East,90,5.0,12.0,52,0.00,,OVC050,0.00,VWS V14.01,2013-01-25 05:38:00,
2013-01-24 23:43:00,26.7,11.4,30.30,SSE,151,6.0,7.0,52,0.00,,OVC050,0.00,VWS V14.01,2013-01-25 05:43:00,
2013-01-24 23:48:00,26.8,11.6,30.31,SE,136,4.0,11.0,52,0.00,,OVC050,0.00,VWS V14.01,2013-01-25 05:48:00,
2013-01-24 23:53:00,26.8,11.1,30.31,ESE,123,4.0,4.0,51,0.00,,OVC050,0.00,VWS V14.01,2013-01-25 05:53:00,
2013-01-24 23:58:00,26.9,11.2,30.31,SE,132,1.0,8.0,51,0.00,,OVC050,0.00,VWS V14.01,2013-01-25 05:58:00,